This is the latest recevied weather packets stored in our database for station/object KI2K. If no packets are shown the sender has not sent any weather packets the latest 1 day(s).
| Time | Temp. | Humidity | Pressure | Rain* | Wind** | Luminosity | Snow |
|---|---|---|---|---|---|---|---|
| 1778039660 | 8.33° C | 99% | 1008.6 hPa | 0 mm | - | 0 W/m² | - |
| 1778039357 | 8.33° C | 99% | 1008.6 hPa | 0 mm | - | 0 W/m² | - |
| 1778039054 | 8.33° C | 99% | 1008.8 hPa | 0 mm | - | 0 W/m² | - |
| 1778038751 | 8.33° C | 99% | 1008.4 hPa | 0 mm | - | 0 W/m² | - |
| 1778038449 | 8.33° C | 99% | 1008.7 hPa | 0 mm | - | 0 W/m² | - |
| 1778037539 | 8.33° C | 99% | 1008.7 hPa | 7.87 mm | - | 0 W/m² | - |
| 1778037236 | 8.33° C | 99% | 1009.2 hPa | 8.89 mm | - | 0 W/m² | - |
| 1778036934 | 8.33° C | 99% | 1009.2 hPa | 10.67 mm | - | 0 W/m² | - |
| 1778036632 | 8.33° C | 99% | 1009.5 hPa | 7.87 mm | - | 0 W/m² | - |
| 1778036328 | 8.33° C | 99% | 1010 hPa | 1.78 mm | - | 0 W/m² | - |
| 1778036025 | 8.33° C | 99% | 1009.6 hPa | 0 mm | - | 0 W/m² | - |
| 1778035722 | 8.33° C | 99% | 1008.6 hPa | 0 mm | - | 0 W/m² | - |
| 1778035115 | 8.33° C | 99% | 1008.1 hPa | 0 mm | - | 0 W/m² | - |
| 1778034508 | 8.33° C | 99% | 1008.3 hPa | 0 mm | - | 0 W/m² | - |
| 1778034206 | 8.33° C | 99% | 1007.7 hPa | 3.05 mm | - | 0 W/m² | - |
| 1778033297 | 8.33° C | 99% | 1008.1 hPa | 11.94 mm | - | 0 W/m² | - |
| 1778032995 | 8.33° C | 99% | 1008.5 hPa | 12.7 mm | - | 0 W/m² | - |
| 1778032693 | 8.33° C | 99% | 1009.2 hPa | 6.1 mm | - | 0 W/m² | - |
| 1778032390 | 8.33° C | 99% | 1009.1 hPa | 1.78 mm | - | 0 W/m² | - |
| 1778030874 | 8.33° C | 99% | 1007 hPa | 6.1 mm | - | 0 W/m² | - |
| 1778030571 | 8.33° C | 99% | 1007.1 hPa | 3.05 mm | - | 0 W/m² | - |
| 1778030268 | 8.33° C | 99% | 1007.6 hPa | 0 mm | - | 0 W/m² | - |
| 1778029663 | 8.33° C | 99% | 1007.5 hPa | 0 mm | - | 0 W/m² | - |
| 1778029057 | 8.33° C | 99% | 1007.3 hPa | 1.78 mm | - | 0 W/m² | - |
| 1778027843 | 7.78° C | 99% | 1007.4 hPa | 1.27 mm | - | 0 W/m² | - |
* Rain latest hour (hover to see other rain measurements)
** Current wind speed in m/s (hover to see current wind gust speed)